Torna al catalogo

CZ-3C DEB

LostGTO
NORAD 42468·DEBRIS·🇨🇳 China

Lanciato Oct 31, 2010 da Xichang Satellite Launch Center

Loading…

TLE

ObsoletoSource: Space-Track

Epoca: Aug 1, 2024, 05:36 UTC

1 42468U 10057BH  24214.23345873  .00000552  00000-0  48231-2 0  9997
2 42468  20.3836 273.0152 7191679 201.2915  98.5651  2.26201465 17817

Traccia CZ-3C DEB in tempo reale con AllMySat

Download on the App Store